Tracking 19170 objects as of 23-May-2018
HD Live streaming from Space Station
objects crossing your sky now

ARIANE 42L R/B

Track ARIANE 42L R/B now!


NORAD ID: 27299
Int'l Code: 2002-002B
Perigee: 487.4 km
Apogee: 36,552.3 km
Inclination: 3.8 °
Period: 651.4 minutes
Semi major axis: 24890 km
RCS: 20.2044 m2 (large)
Launch date: January 23, 2002
Source: France (FR)
Launch site: FRENCH GUIANA (FRGUI)

Note: This is a ROCKET BODY
aabbcc
Your satellite tracking list
Your tracking list is empty




NASA's NSSDC Master Catalog

Two Line Element Set (TLE):
1 27299U 02002B   18142.83211580  .00000000  00000-0  40772-3 0  9990
2 27299   3.7936 145.1978 7244621  32.5857 356.3370  2.21076760131508
Source of the keplerian elements: AFSPC